| time (UTC) | temp F | wind direction | speed MPH | gust MPH | rain 1hr in | rain 24hr in | rain mn in | humidity % | barometer mb |
| 20260507151005 | 56 | 342 | 7.0 | 12.0 | 0.00 | 0.69 | 0.49 | 70 | 1099.8 |
| 20260507150505 | 56 | 297 | 4.0 | 8.0 | 0.00 | 0.69 | 0.49 | 70 | 1099.8 |
| 20260507145506 | 55 | 353 | 6.0 | 12.0 | 0.00 | 0.69 | 0.49 | 71 | 1099.8 |
| 20260507145005 | 55 | 295 | 5.0 | 6.0 | 0.00 | 0.69 | 0.49 | 73 | 1099.8 |
| 20260507144004 | 54 | 313 | 3.0 | 9.0 | 0.00 | 0.69 | 0.49 | 75 | 1099.8 |
| 20260507143504 | 54 | 319 | 4.0 | 9.0 | 0.00 | 0.69 | 0.49 | 76 | 1099.8 |
| 20260507143005 | 54 | 280 | 2.0 | 6.0 | 0.00 | 0.69 | 0.49 | 77 | 1099.8 |
| 20260507142004 | 53 | 323 | 5.0 | 8.0 | 0.00 | 0.69 | 0.49 | 78 | 1099.8 |
| 20260507141504 | 53 | 0 | 4.0 | 7.0 | 0.00 | 0.69 | 0.49 | 79 | 1099.8 |
| 20260507141004 | 53 | 317 | 2.0 | 8.0 | 0.00 | 0.69 | 0.49 | 81 | 1099.8 |
| 20260507140504 | 52 | 317 | 6.0 | 12.0 | 0.00 | 0.69 | 0.49 | 81 | 1099.8 |
| 20260507140005 | 52 | 320 | 3.0 | 10.0 | 0.00 | 0.69 | 0.49 | 83 | 1099.8 |
| 20260507135504 | 52 | 320 | 4.0 | 13.0 | 0.00 | 0.69 | 0.49 | 84 | 1099.8 |
| 20260507135004 | 52 | 301 | 2.0 | 6.0 | 0.00 | 0.69 | 0.49 | 84 | 1099.8 |
| 20260507134004 | 51 | 326 | 5.0 | 9.0 | 0.00 | 0.69 | 0.49 | 85 | 1099.8 |
| 20260507133505 | 50 | 284 | 2.0 | 8.0 | 0.00 | 0.69 | 0.49 | 85 | 1099.8 |
| 20260507133004 | 50 | 286 | 2.0 | 8.0 | 0.01 | 0.69 | 0.49 | 85 | 1099.8 |
| 20260507132504 | 50 | 299 | 3.0 | 6.0 | 0.01 | 0.69 | 0.49 | 86 | 1099.8 |
| 20260507132005 | 50 | 14 | 5.0 | 7.0 | 0.02 | 0.69 | 0.49 | 86 | 1099.8 |
| 20260507131005 | 50 | 336 | 2.0 | 5.0 | 0.02 | 0.69 | 0.49 | 87 | 1099.8 |
| 20260507130504 | 49 | 336 | 4.0 | 6.0 | 0.03 | 0.69 | 0.49 | 87 | 1099.8 |
| 20260507130004 | 49 | 315 | 3.0 | 6.0 | 0.03 | 0.69 | 0.49 | 88 | 1099.8 |
| 20260507125504 | 49 | 315 | 0.0 | 3.0 | 0.03 | 0.69 | 0.49 | 89 | 1099.8 |
| 20260507124504 | 49 | 315 | 1.0 | 3.0 | 0.03 | 0.69 | 0.49 | 89 | 1099.8 |
| 20260507124004 | 49 | 315 | 2.0 | 6.0 | 0.03 | 0.69 | 0.49 | 89 | 1099.8 |
| 20260507123504 | 49 | 285 | 2.0 | 7.0 | 0.04 | 0.69 | 0.49 | 90 | 1099.8 |
| 20260507122505 | 49 | 310 | 1.0 | 6.0 | 0.05 | 0.68 | 0.48 | 90 | 1099.8 |
| 20260507122005 | 49 | 310 | 1.0 | 3.0 | 0.04 | 0.67 | 0.47 | 90 | 1099.8 |
| 20260507121505 | 49 | 310 | 1.0 | 3.0 | 0.05 | 0.67 | 0.47 | 90 | 1099.8 |
| 20260507121005 | 48 | 310 | 2.0 | 3.0 | 0.05 | 0.67 | 0.47 | 89 | 1099.8 |
| 20260507120505 | 48 | 310 | 2.0 | 5.0 | 0.04 | 0.66 | 0.46 | 89 | 1099.8 |
| 20260507120005 | 48 | 309 | 1.0 | 3.0 | 0.04 | 0.66 | 0.46 | 90 | 1099.8 |
| 20260507115505 | 48 | 309 | 0.0 | 2.0 | 0.04 | 0.66 | 0.46 | 90 | 1099.8 |
| 20260507115004 | 48 | 309 | 4.0 | 7.0 | 0.05 | 0.66 | 0.46 | 90 | 1099.8 |
| 20260507114505 | 48 | 305 | 4.0 | 7.0 | 0.05 | 0.66 | 0.46 | 90 | 1099.8 |
| 20260507114004 | 49 | 283 | 1.0 | 2.0 | 0.06 | 0.66 | 0.46 | 90 | 1099.8 |
| 20260507113505 | 49 | 283 | 2.0 | 5.0 | 0.06 | 0.65 | 0.45 | 90 | 1099.8 |
| 20260507112004 | 49 | 312 | 2.0 | 8.0 | 0.05 | 0.63 | 0.43 | 90 | 1099.8 |
| 20260507111506 | 49 | 301 | 3.0 | 7.0 | 0.04 | 0.62 | 0.42 | 90 | 1099.8 |
| 20260507111004 | 49 | 318 | 4.0 | 8.0 | 0.04 | 0.62 | 0.42 | 90 | 1099.8 |
| 20260507110504 | 49 | 327 | 4.0 | 8.0 | 0.05 | 0.62 | 0.42 | 90 | 1099.8 |
| 20260507110005 | 49 | 326 | 3.0 | 6.0 | 0.05 | 0.62 | 0.42 | 90 | 1099.8 |
| 20260507105504 | 50 | 342 | 5.0 | 8.0 | 0.05 | 0.62 | 0.42 | 90 | 1099.8 |
| 20260507105006 | 50 | 333 | 3.0 | 7.0 | 0.04 | 0.61 | 0.41 | 91 | 1099.8 |
| 20260507104505 | 50 | 334 | 3.0 | 8.0 | 0.05 | 0.61 | 0.41 | 91 | 1099.8 |
| 20260507104004 | 50 | 273 | 4.0 | 7.0 | 0.04 | 0.60 | 0.40 | 91 | 1099.8 |
| 20260507103505 | 50 | 273 | 2.0 | 7.0 | 0.03 | 0.59 | 0.39 | 91 | 1099.8 |
| 20260507103005 | 50 | 280 | 3.0 | 6.0 | 0.04 | 0.59 | 0.39 | 91 | 1099.8 |
| 20260507102004 | 50 | 292 | 3.0 | 7.0 | 0.05 | 0.58 | 0.38 | 91 | 1099.8 |
| 20260507101506 | 50 | 302 | 3.0 | 7.0 | 0.05 | 0.58 | 0.38 | 91 | 1099.8 |
| 20260507101004 | 50 | 314 | 4.0 | 7.0 | 0.06 | 0.58 | 0.38 | 91 | 1099.8 |
| 20260507100005 | 50 | 311 | 3.0 | 8.0 | 0.06 | 0.57 | 0.37 | 91 | 1099.8 |
| 20260507095004 | 50 | 326 | 3.0 | 9.0 | 0.09 | 0.57 | 0.37 | 91 | 1099.8 |
| 20260507094504 | 51 | 320 | 6.0 | 12.0 | 0.08 | 0.56 | 0.36 | 91 | 1099.8 |
| 20260507093504 | 52 | 338 | 6.0 | 10.0 | 0.10 | 0.56 | 0.36 | 91 | 1099.8 |
| 20260507093005 | 52 | 246 | 6.0 | 12.0 | 0.12 | 0.55 | 0.35 | 91 | 1099.8 |
| 20260507092504 | 52 | 246 | 4.0 | 10.0 | 0.13 | 0.54 | 0.34 | 91 | 1099.8 |
| 20260507092004 | 53 | 246 | 3.0 | 10.0 | 0.19 | 0.53 | 0.33 | 92 | 1099.8 |
| 20260507091504 | 53 | 246 | 3.0 | 7.0 | 0.29 | 0.53 | 0.33 | 92 | 1099.8 |
| 20260507091004 | 53 | 246 | 5.0 | 8.0 | 0.32 | 0.52 | 0.32 | 92 | 1099.8 |
| 20260507090504 | 53 | 246 | 2.0 | 6.0 | 0.31 | 0.51 | 0.31 | 92 | 1099.8 |
| 20260507085505 | 53 | 246 | 1.0 | 7.0 | 0.29 | 0.49 | 0.29 | 92 | 1099.8 |
| 20260507084005 | 54 | 246 | 6.0 | 12.0 | 0.28 | 0.48 | 0.28 | 92 | 1099.8 |
| 20260507083004 | 54 | 223 | 2.0 | 6.0 | 0.23 | 0.43 | 0.23 | 92 | 1099.8 |
| 20260507082504 | 54 | 223 | 1.0 | 3.0 | 0.21 | 0.41 | 0.21 | 92 | 1099.8 |
| 20260507081504 | 54 | 223 | 1.0 | 2.0 | 0.04 | 0.24 | 0.04 | 92 | 1099.8 |
| 20260507081005 | 53 | 223 | 2.0 | 5.0 | 0.00 | 0.20 | 0.00 | 92 | 1099.8 |
| 20260507080005 | 54 | 223 | 1.0 | 3.0 | 0.00 | 0.20 | 0.00 | 92 | 1099.8 |
| 20260507075504 | 54 | 223 | 1.0 | 2.0 | 0.00 | 0.20 | 0.00 | 92 | 1099.8 |
| 20260507075004 | 54 | 223 | 1.0 | 2.0 | 0.00 | 0.20 | 0.00 | 92 | 1099.8 |
| 20260507074504 | 54 | 223 | 1.0 | 3.0 | 0.00 | 0.20 | 0.00 | 92 | 1099.8 |
| 20260507074004 | 54 | 223 | 0.0 | 3.0 | 0.00 | 0.20 | 0.00 | 92 | 1099.8 |
| 20260507073505 | 54 | 223 | 1.0 | 2.0 | 0.00 | 0.20 | 0.00 | 92 | 1099.8 |
| 20260507073004 | 54 | 223 | 1.0 | 3.0 | 0.00 | 0.20 | 0.00 | 92 | 1099.8 |
| 20260507072504 | 54 | 223 | 1.0 | 2.0 | 0.00 | 0.20 | 0.00 | 92 | 1099.8 |
| 20260507072005 | 54 | 223 | 0.0 | 3.0 | 0.00 | 0.20 | 0.00 | 92 | 1099.8 |
| 20260507071505 | 54 | 223 | 2.0 | 6.0 | 0.00 | 0.20 | 0.00 | 92 | 1099.8 |
| 20260507071004 | 54 | 223 | 2.0 | 5.0 | 0.00 | 0.20 | 0.00 | 92 | 1099.8 |
| 20260507070504 | 54 | 223 | 1.0 | 2.0 | 0.00 | 0.20 | 0.00 | 92 | 1099.8 |
| 20260507065505 | 54 | 223 | 0.0 | 3.0 | 0.00 | 0.20 | 0.00 | 92 | 1099.8 |
| 20260507065004 | 54 | 223 | 1.0 | 3.0 | 0.00 | 0.20 | 0.00 | 92 | 1099.8 |
| 20260507064505 | 54 | 223 | 0.0 | 1.0 | 0.00 | 0.20 | 0.00 | 92 | 1099.8 |
| 20260507063504 | 54 | 223 | 1.0 | 2.0 | 0.00 | 0.20 | 0.00 | 92 | 1099.8 |
| 20260507063004 | 54 | 223 | 0.0 | 2.0 | 0.00 | 0.20 | 0.00 | 92 | 1099.8 |
| 20260507062504 | 54 | 223 | 1.0 | 2.0 | 0.00 | 0.20 | 0.00 | 92 | 1099.8 |
| 20260507062004 | 54 | 223 | 1.0 | 3.0 | 0.00 | 0.20 | 0.00 | 92 | 1099.8 |
| 20260507061504 | 54 | 223 | 2.0 | 5.0 | 0.00 | 0.20 | 0.00 | 91 | 1099.8 |
| 20260507061004 | 54 | 223 | 1.0 | 3.0 | 0.00 | 0.20 | 0.00 | 91 | 1099.8 |
| 20260507060504 | 54 | 223 | 0.0 | 1.0 | 0.00 | 0.20 | 0.00 | 91 | 1099.8 |
| 20260507060004 | 54 | 223 | 1.0 | 5.0 | 0.00 | 0.20 | 0.00 | 91 | 1099.8 |
| 20260507055504 | 54 | 223 | 0.0 | 2.0 | 0.00 | 0.20 | 0.00 | 91 | 1099.8 |
| 20260507054504 | 54 | 223 | 1.0 | 5.0 | 0.00 | 0.20 | 0.00 | 91 | 1099.8 |
| 20260507054005 | 54 | 223 | 1.0 | 6.0 | 0.00 | 0.20 | 0.00 | 91 | 1099.8 |
| 20260507053505 | 54 | 223 | 3.0 | 7.0 | 0.00 | 0.20 | 0.00 | 91 | 1099.8 |
| 20260507053005 | 54 | 223 | 1.0 | 5.0 | 0.00 | 0.20 | 0.00 | 91 | 1099.8 |
| 20260507052504 | 54 | 223 | 2.0 | 5.0 | 0.00 | 0.20 | 0.00 | 91 | 1099.8 |
| 20260507051504 | 54 | 223 | 1.0 | 6.0 | 0.00 | 0.20 | 0.00 | 91 | 1099.8 |
| 20260507051004 | 54 | 223 | 3.0 | 6.0 | 0.00 | 0.20 | 0.00 | 91 | 1099.8 |
| 20260507050505 | 54 | 223 | 3.0 | 7.0 | 0.00 | 0.20 | 0.00 | 91 | 1099.8 |
| 20260507050005 | 54 | 223 | 3.0 | 8.0 | 0.00 | 0.20 | 0.00 | 91 | 1099.8 |
| 20260507045504 | 54 | 223 | 2.0 | 5.0 | 0.00 | 0.20 | 0.00 | 91 | 1099.8 |
| 20260507045004 | 54 | 209 | 1.0 | 6.0 | 0.00 | 0.20 | 0.00 | 91 | 1099.8 |
| 20260507044004 | 54 | 192 | 2.0 | 6.0 | 0.00 | 0.20 | 0.00 | 91 | 1099.8 |
| 20260507042505 | 54 | 208 | 3.0 | 8.0 | 0.00 | 0.20 | 0.00 | 91 | 1099.8 |
| 20260507042004 | 54 | 220 | 1.0 | 7.0 | 0.00 | 0.20 | 0.00 | 91 | 1099.8 |
| 20260507041504 | 55 | 220 | 2.0 | 7.0 | 0.00 | 0.20 | 0.00 | 91 | 1099.8 |
| 20260507041004 | 55 | 218 | 3.0 | 7.0 | 0.00 | 0.20 | 0.00 | 91 | 1099.8 |
| 20260507040504 | 55 | 215 | 2.0 | 6.0 | 0.00 | 0.20 | 0.00 | 91 | 1099.8 |
| 20260507040005 | 55 | 191 | 1.0 | 9.0 | 0.00 | 0.20 | 0.00 | 91 | 1099.8 |
| 20260507035504 | 55 | 219 | 2.0 | 9.0 | 0.00 | 0.20 | 0.20 | 91 | 1099.8 |
| 20260507035004 | 55 | 222 | 3.0 | 10.0 | 0.00 | 0.20 | 0.20 | 91 | 1099.8 |
| 20260507034504 | 55 | 227 | 2.0 | 6.0 | 0.00 | 0.20 | 0.20 | 91 | 1099.8 |
| 20260507034005 | 55 | 227 | 2.0 | 9.0 | 0.00 | 0.20 | 0.20 | 91 | 1099.8 |
| 20260507033504 | 55 | 227 | 3.0 | 8.0 | 0.00 | 0.20 | 0.20 | 91 | 1099.8 |
| 20260507033004 | 55 | 222 | 3.0 | 8.0 | 0.00 | 0.20 | 0.20 | 91 | 1099.8 |
| 20260507032504 | 54 | 215 | 4.0 | 9.0 | 0.00 | 0.20 | 0.20 | 91 | 1099.8 |
| 20260507031504 | 54 | 222 | 2.0 | 7.0 | 0.00 | 0.20 | 0.20 | 91 | 1099.8 |
| 20260507031004 | 54 | 213 | 3.0 | 12.0 | 0.00 | 0.20 | 0.20 | 91 | 1099.8 |
| 20260507030504 | 54 | 238 | 4.0 | 12.0 | 0.00 | 0.20 | 0.20 | 91 | 1099.8 |
| 20260507030004 | 54 | 226 | 5.0 | 14.0 | 0.00 | 0.20 | 0.20 | 91 | 1099.8 |
| 20260507025505 | 55 | 236 | 3.0 | 12.0 | 0.00 | 0.20 | 0.20 | 91 | 1099.8 |
| 20260507025004 | 55 | 216 | 4.0 | 13.0 | 0.00 | 0.20 | 0.20 | 91 | 1099.8 |
| 20260507024504 | 55 | 242 | 3.0 | 10.0 | 0.00 | 0.20 | 0.20 | 91 | 1099.8 |
| 20260507024005 | 55 | 242 | 2.0 | 5.0 | 0.00 | 0.20 | 0.20 | 91 | 1099.8 |
| 20260507023504 | 55 | 242 | 3.0 | 9.0 | 0.00 | 0.20 | 0.20 | 91 | 1099.8 |
| 20260507023004 | 55 | 242 | 4.0 | 10.0 | 0.00 | 0.20 | 0.20 | 91 | 1099.8 |
| 20260507022504 | 55 | 242 | 3.0 | 13.0 | 0.00 | 0.20 | 0.20 | 91 | 1099.8 |
| 20260507022005 | 55 | 237 | 5.0 | 10.0 | 0.00 | 0.20 | 0.20 | 91 | 1099.8 |
| 20260507021505 | 55 | 238 | 3.0 | 12.0 | 0.00 | 0.20 | 0.20 | 91 | 1099.8 |
| 20260507021005 | 55 | 223 | 5.0 | 16.0 | 0.00 | 0.20 | 0.20 | 91 | 1099.8 |
| 20260507020004 | 56 | 234 | 4.0 | 12.0 | 0.00 | 0.20 | 0.20 | 91 | 1099.8 |
| 20260507015505 | 56 | 225 | 4.0 | 10.0 | 0.00 | 0.20 | 0.20 | 91 | 1099.8 |
| 20260507014004 | 56 | 204 | 6.0 | 12.0 | 0.01 | 0.20 | 0.20 | 90 | 1099.8 |
| 20260507013505 | 56 | 241 | 5.0 | 12.0 | 0.02 | 0.20 | 0.20 | 91 | 1099.8 |
| 20260507012505 | 56 | 228 | 5.0 | 14.0 | 0.03 | 0.20 | 0.20 | 90 | 1099.8 |
| 20260507012004 | 56 | 240 | 6.0 | 12.0 | 0.03 | 0.20 | 0.20 | 90 | 1099.8 |
| 20260507011505 | 56 | 206 | 5.0 | 12.0 | 0.04 | 0.20 | 0.20 | 90 | 1099.8 |
| 20260507011005 | 56 | 250 | 5.0 | 13.0 | 0.05 | 0.20 | 0.20 | 90 | 1099.8 |
| 20260507010505 | 56 | 232 | 5.0 | 9.0 | 0.05 | 0.20 | 0.20 | 90 | 1099.8 |
| 20260507005504 | 56 | 211 | 7.0 | 20.0 | 0.07 | 0.20 | 0.20 | 90 | 1099.8 |
| 20260507005004 | 56 | 232 | 7.0 | 16.0 | 0.07 | 0.19 | 0.19 | 90 | 1099.8 |
| 20260507004504 | 56 | 234 | 5.0 | 10.0 | 0.08 | 0.19 | 0.19 | 90 | 1099.8 |
| 20260507003505 | 56 | 246 | 4.0 | 13.0 | 0.09 | 0.18 | 0.18 | 90 | 1099.8 |
| 20260507003005 | 56 | 263 | 4.0 | 20.0 | 0.12 | 0.18 | 0.18 | 90 | 1099.8 |
| 20260507002504 | 56 | 193 | 5.0 | 15.0 | 0.11 | 0.17 | 0.17 | 90 | 1099.8 |
| 20260507002004 | 56 | 231 | 5.0 | 12.0 | 0.12 | 0.17 | 0.17 | 90 | 1099.8 |
| 20260507001504 | 56 | 227 | 3.0 | 12.0 | 0.11 | 0.16 | 0.16 | 90 | 1099.8 |
| 20260507001005 | 56 | 223 | 5.0 | 15.0 | 0.11 | 0.15 | 0.15 | 90 | 1099.8 |
| 20260507000504 | 56 | 250 | 6.0 | 13.0 | 0.11 | 0.15 | 0.15 | 90 | 1099.8 |
| 20260507000004 | 56 | 194 | 6.0 | 16.0 | 0.11 | 0.14 | 0.14 | 90 | 1099.8 |
| 20260506235504 | 56 | 236 | 3.0 | 9.0 | 0.11 | 0.13 | 0.13 | 90 | 1099.8 |
| 20260506234505 | 56 | 240 | 6.0 | 13.0 | 0.10 | 0.11 | 0.11 | 89 | 1099.8 |
| 20260506234005 | 56 | 228 | 6.0 | 14.0 | 0.09 | 0.10 | 0.10 | 89 | 1099.8 |
| 20260506233504 | 56 | 230 | 6.0 | 14.0 | 0.08 | 0.09 | 0.09 | 89 | 1099.8 |
| 20260506233005 | 56 | 223 | 5.0 | 12.0 | 0.05 | 0.06 | 0.06 | 89 | 1099.8 |
| 20260506232504 | 56 | 241 | 3.0 | 14.0 | 0.06 | 0.06 | 0.06 | 89 | 1099.8 |
| 20260506232004 | 56 | 234 | 8.0 | 15.0 | 0.05 | 0.05 | 0.05 | 89 | 1099.8 |
| 20260506231504 | 56 | 195 | 7.0 | 22.0 | 0.05 | 0.05 | 0.05 | 89 | 1099.8 |
| 20260506231005 | 56 | 213 | 7.0 | 16.0 | 0.04 | 0.04 | 0.04 | 88 | 1099.8 |
| 20260506230504 | 56 | 229 | 6.0 | 20.0 | 0.04 | 0.04 | 0.04 | 88 | 1099.8 |
| 20260506230004 | 56 | 259 | 6.0 | 15.0 | 0.03 | 0.03 | 0.03 | 88 | 1099.8 |
| 20260506225505 | 56 | 236 | 4.0 | 13.0 | 0.02 | 0.02 | 0.02 | 88 | 1099.8 |
| 20260506225004 | 56 | 225 | 6.0 | 20.0 | 0.02 | 0.02 | 0.02 | 87 | 1099.8 |
| 20260506224506 | 56 | 223 | 5.0 | 20.0 | 0.01 | 0.01 | 0.01 | 87 | 1099.8 |
| 20260506223504 | 57 | 212 | 6.0 | 16.0 | 0.01 | 0.01 | 0.01 | 87 | 1099.8 |
| 20260506222504 | 57 | 222 | 6.0 | 15.0 | 0.00 | 0.00 | 0.00 | 86 | 1099.8 |
| 20260506222004 | 57 | 228 | 6.0 | 20.0 | 0.00 | 0.00 | 0.00 | 85 | 1099.8 |
| 20260506221504 | 58 | 247 | 6.0 | 15.0 | 0.00 | 0.00 | 0.00 | 85 | 1099.8 |
| 20260506221004 | 58 | 258 | 5.0 | 12.0 | 0.00 | 0.00 | 0.00 | 84 | 1099.8 |
| 20260506220505 | 58 | 221 | 6.0 | 13.0 | 0.00 | 0.00 | 0.00 | 83 | 1099.8 |
| 20260506220005 | 58 | 234 | 7.0 | 13.0 | 0.00 | 0.00 | 0.00 | 83 | 1099.8 |
| 20260506215505 | 58 | 232 | 5.0 | 10.0 | 0.00 | 0.00 | 0.00 | 83 | 1099.8 |
| 20260506215006 | 58 | 227 | 5.0 | 10.0 | 0.00 | 0.00 | 0.00 | 83 | 1099.8 |
| 20260506214005 | 58 | 238 | 7.0 | 18.0 | 0.00 | 0.00 | 0.00 | 83 | 1099.8 |
| 20260506213504 | 59 | 218 | 7.0 | 18.0 | 0.00 | 0.00 | 0.00 | 83 | 1099.8 |
| 20260506213004 | 58 | 236 | 7.0 | 14.0 | 0.00 | 0.00 | 0.00 | 83 | 1099.8 |
| 20260506212504 | 58 | 232 | 5.0 | 20.0 | 0.00 | 0.00 | 0.00 | 83 | 1099.8 |
| 20260506212004 | 58 | 227 | 5.0 | 12.0 | 0.00 | 0.00 | 0.00 | 83 | 1099.8 |
| 20260506211504 | 58 | 223 | 8.0 | 15.0 | 0.00 | 0.00 | 0.00 | 83 | 1099.8 |
| 20260506211004 | 58 | 253 | 5.0 | 13.0 | 0.00 | 0.00 | 0.00 | 82 | 1099.8 |
| 20260506210504 | 58 | 240 | 6.0 | 13.0 | 0.00 | 0.00 | 0.00 | 82 | 1099.8 |
| 20260506210005 | 58 | 252 | 7.0 | 20.0 | 0.00 | 0.00 | 0.00 | 82 | 1099.8 |
| 20260506205504 | 58 | 222 | 10.0 | 24.0 | 0.00 | 0.00 | 0.00 | 82 | 1099.8 |
| 20260506205004 | 58 | 241 | 7.0 | 16.0 | 0.00 | 0.00 | 0.00 | 81 | 1099.8 |
| 20260506204504 | 59 | 217 | 8.0 | 21.0 | 0.00 | 0.00 | 0.00 | 80 | 1099.8 |
| 20260506204005 | 59 | 252 | 7.0 | 22.0 | 0.00 | 0.00 | 0.00 | 80 | 1099.8 |
| 20260506203504 | 59 | 222 | 9.0 | 21.0 | 0.00 | 0.00 | 0.00 | 81 | 1099.8 |
| 20260506202504 | 58 | 236 | 7.0 | 14.0 | 0.00 | 0.00 | 0.00 | 81 | 1099.8 |
| 20260506202004 | 58 | 237 | 7.0 | 13.0 | 0.00 | 0.00 | 0.00 | 80 | 1099.8 |
| 20260506201504 | 58 | 220 | 7.0 | 13.0 | 0.00 | 0.00 | 0.00 | 80 | 1099.8 |
| 20260506201004 | 58 | 212 | 6.0 | 20.0 | 0.00 | 0.00 | 0.00 | 80 | 1099.8 |
| 20260506200505 | 59 | 233 | 7.0 | 23.0 | 0.00 | 0.00 | 0.00 | 80 | 1099.8 |
| 20260506200005 | 59 | 240 | 6.0 | 20.0 | 0.00 | 0.00 | 0.00 | 79 | 1099.8 |
| 20260506195504 | 59 | 229 | 8.0 | 22.0 | 0.00 | 0.00 | 0.00 | 79 | 1099.8 |
| 20260506195004 | 59 | 220 | 5.0 | 15.0 | 0.00 | 0.00 | 0.00 | 79 | 1099.8 |
| 20260506194505 | 59 | 230 | 9.0 | 16.0 | 0.00 | 0.00 | 0.00 | 79 | 1099.8 |
| 20260506194005 | 59 | 230 | 7.0 | 22.0 | 0.00 | 0.00 | 0.00 | 79 | 1099.8 |
| 20260506193505 | 60 | 224 | 6.0 | 20.0 | 0.00 | 0.00 | 0.00 | 79 | 1099.8 |
| 20260506193005 | 59 | 207 | 9.0 | 20.0 | 0.00 | 0.00 | 0.00 | 79 | 1099.8 |
| 20260506192505 | 59 | 193 | 9.0 | 21.0 | 0.00 | 0.00 | 0.00 | 78 | 1099.8 |
| 20260506192005 | 60 | 226 | 6.0 | 18.0 | 0.00 | 0.00 | 0.00 | 78 | 1099.8 |
| 20260506191505 | 60 | 263 | 6.0 | 20.0 | 0.00 | 0.00 | 0.00 | 78 | 1099.8 |
| 20260506191004 | 60 | 240 | 6.0 | 18.0 | 0.00 | 0.00 | 0.00 | 78 | 1099.8 |
| 20260506190504 | 60 | 215 | 6.0 | 20.0 | 0.00 | 0.00 | 0.00 | 78 | 1099.8 |
| 20260506190005 | 60 | 207 | 6.0 | 18.0 | 0.00 | 0.00 | 0.00 | 78 | 1099.8 |
| 20260506185504 | 60 | 223 | 10.0 | 22.0 | 0.00 | 0.00 | 0.00 | 77 | 1099.8 |
| 20260506184504 | 60 | 238 | 10.0 | 24.0 | 0.00 | 0.00 | 0.00 | 78 | 1099.8 |
| 20260506184005 | 60 | 213 | 8.0 | 20.0 | 0.00 | 0.00 | 0.00 | 77 | 1099.8 |
| 20260506183504 | 60 | 216 | 7.0 | 14.0 | 0.00 | 0.00 | 0.00 | 77 | 1099.8 |
| 20260506183005 | 60 | 227 | 9.0 | 18.0 | 0.00 | 0.00 | 0.00 | 77 | 1099.8 |
| 20260506182504 | 60 | 230 | 6.0 | 14.0 | 0.00 | 0.00 | 0.00 | 77 | 1099.8 |
| 20260506182004 | 60 | 235 | 6.0 | 18.0 | 0.00 | 0.00 | 0.00 | 77 | 1099.8 |
| 20260506181004 | 62 | 194 | 6.0 | 15.0 | 0.00 | 0.00 | 0.00 | 75 | 1099.8 |
| 20260506180504 | 62 | 224 | 6.0 | 15.0 | 0.00 | 0.00 | 0.00 | 75 | 1099.8 |
| 20260506180005 | 63 | 196 | 6.0 | 15.0 | 0.00 | 0.00 | 0.00 | 75 | 1099.8 |
| 20260506175505 | 63 | 212 | 9.0 | 18.0 | 0.00 | 0.00 | 0.00 | 74 | 1099.8 |
| 20260506174505 | 63 | 239 | 9.0 | 22.0 | 0.00 | 0.00 | 0.00 | 75 | 1099.8 |
| 20260506174004 | 63 | 241 | 11.0 | 23.0 | 0.00 | 0.00 | 0.00 | 74 | 1099.8 |
| 20260506173505 | 63 | 235 | 6.0 | 16.0 | 0.00 | 0.00 | 0.00 | 74 | 1099.8 |
| 20260506173004 | 63 | 237 | 6.0 | 24.0 | 0.00 | 0.00 | 0.00 | 75 | 1099.8 |
| 20260506172504 | 62 | 228 | 9.0 | 25.0 | 0.00 | 0.00 | 0.00 | 74 | 1099.8 |
| 20260506172005 | 63 | 217 | 7.0 | 25.0 | 0.00 | 0.00 | 0.00 | 75 | 1099.8 |
| 20260506171504 | 62 | 222 | 7.0 | 13.0 | 0.00 | 0.00 | 0.00 | 76 | 1099.8 |
| 20260506171005 | 61 | 252 | 10.0 | 25.0 | 0.00 | 0.00 | 0.00 | 76 | 1099.8 |
| 20260506170505 | 61 | 212 | 8.0 | 24.0 | 0.00 | 0.00 | 0.00 | 76 | 1099.8 |
| 20260506170005 | 61 | 193 | 7.0 | 18.0 | 0.00 | 0.00 | 0.00 | 76 | 1099.8 |
| 20260506165505 | 62 | 215 | 9.0 | 21.0 | 0.00 | 0.00 | 0.00 | 75 | 1099.8 |
| 20260506165005 | 62 | 198 | 7.0 | 15.0 | 0.00 | 0.00 | 0.00 | 75 | 1099.8 |
| 20260506164504 | 62 | 205 | 5.0 | 14.0 | 0.00 | 0.00 | 0.00 | 75 | 1099.8 |
| 20260506164004 | 62 | 216 | 9.0 | 23.0 | 0.00 | 0.00 | 0.00 | 75 | 1099.8 |
| 20260506163505 | 63 | 211 | 7.0 | 13.0 | 0.00 | 0.00 | 0.00 | 75 | 1099.8 |
| 20260506163005 | 63 | 225 | 7.0 | 16.0 | 0.00 | 0.00 | 0.00 | 74 | 1099.8 |
| 20260506162504 | 63 | 255 | 5.0 | 14.0 | 0.00 | 0.00 | 0.00 | 75 | 1099.8 |
| 20260506162004 | 63 | 216 | 6.0 | 21.0 | 0.00 | 0.00 | 0.00 | 75 | 1099.8 |
| 20260506161504 | 63 | 255 | 8.0 | 20.0 | 0.00 | 0.00 | 0.00 | 74 | 1099.8 |
| 20260506161005 | 62 | 226 | 5.0 | 20.0 | 0.00 | 0.00 | 0.00 | 76 | 1099.8 |
| 20260506160504 | 62 | 243 | 12.0 | 31.0 | 0.00 | 0.00 | 0.00 | 75 | 1099.8 |
| 20260506160005 | 62 | 211 | 7.0 | 15.0 | 0.00 | 0.00 | 0.00 | 74 | 1099.8 |
| 20260506155505 | 62 | 229 | 6.0 | 20.0 | 0.00 | 0.00 | 0.00 | 75 | 1099.8 |
| 20260506155004 | 63 | 214 | 10.0 | 25.0 | 0.00 | 0.00 | 0.00 | 75 | 1099.8 |
| 20260506153004 | 62 | 202 | 10.0 | 20.0 | 0.00 | 0.00 | 0.00 | 75 | 1099.8 |
| 20260506152004 | 61 | 202 | 9.0 | 25.0 | 0.00 | 0.00 | 0.00 | 75 | 1099.8 |
| 20260506151505 | 61 | 233 | 7.0 | 14.0 | 0.00 | 0.00 | 0.00 | 76 | 1099.8 |